Dewpoint
57 53 52 50 47 43 39 40 40 37 32 32 31 28 28 27 27 24 24 22 24 25
50 50 49 47 45 42 41 39 36 33 33 33 32 29 26 27 24 23 24 23 24 25
49 49 48 46 44 42 38 35 32 32 32 32 30 26 26 23 21 21 23 24 23 23
48 46 46 44 42 38 35 31 31 31 31 30 27 24 22 22 20 19 20 22 23 22
46 45 44 41 38 34 31 31 30 29 29 30 26 23 22 20 19 19 20 20 23 24
43 43 41 39 34 31 30 30 30 28 27 21 21 18 17 17 17 19 20 21 22 22
43 42 37 34 33 30 31 31 31 31 28 24 21 18 19 22 23 23 23 23 22 21
35 33 30 30 30 30 30 28 27 29 27 26 26 25 26 25 24 23 22 22 21 21
30 31 32 32 30 29 30 30 29 26 23 25 27 32 31 26 24 23 22 21 21 21
32 31 30 30 30 29 30 30 27 25 21 26 28 30 29 28 23 21 21 21 21 20
33 33 34 34 33 32 31 30 30 29 29 30 29 29 28 26 21 21 20 21 20 20
36 35 35 34 33 33 33 32 31 29 25 26 24 25 25 23 21 21 21 21 21 23
35 35 34 34 33 33 31 26 20 16 15 21 17 23 20 24 21 19 20 21 22 25
34 32 31 29 26 21 17 15 13 12 12 13 13 14 17 18 20 19 21 21 21 21
Lifted_Index
-1 -1 -1 -1 -1 -1 -1 -1 -1 -1 -0 1 3 6 8 8 7 7 8 8 8 8
-1 -1 -1 -1 -1 -1 -1 -1 -1 -1 -0 2 5 7 8 8 8 8 8 8 8 8
-1 -1 -1 -1 -1 -1 -1 -1 -1 -1 0 3 6 8 8 8 8 8 9 9 9 9
-1 -2 -2 -1 -1 -1 -1 -1 -1 -0 1 4 6 8 8 9 9 9 9 9 9 9
-1 -1 -2 -1 -1 -1 -1 -1 -0 1 2 5 7 8 9 9 9 9 9 9 9 9
-1 -1 -1 -1 -1 -1 -0 0 1 3 5 7 9 10 10 10 10 9 9 10 10 11
-2 -2 -1 -1 -1 0 1 3 4 6 8 10 11 12 12 11 10 10 10 12 13 14
-2 -1 -1 -0 -0 1 4 6 8 10 11 12 13 13 12 12 11 11 12 14 16 17
-1 -1 -0 1 2 4 7 9 11 12 12 13 13 13 12 12 13 13 14 16 17 18
0 1 1 3 5 8 10 11 11 12 13 13 13 13 13 15 16 16 17 17 18 18
3 3 5 6 9 10 10 11 11 12 12 12 13 14 16 17 18 18 18 19 19 19
7 7 8 9 9 10 10 10 11 12 13 13 15 17 18 18 19 18 19 19 20 20
9 9 10 10 10 10 11 11 13 14 15 16 18 19 19 19 19 18 18 19 20 21
10 10 11 11 11 11 12 12 13 15 17 18 19 20 20 20 19 18 18 19 20 21